LAOSAT 1

Last updated on Wed Mar 04 2026 00:02:50 GMT+0000 (Coordinated Universal Time)

1 41034U 15067A 26062.58378355 -.00000357 00000+0 00000+0 0 9995 2 41034 0.0369 299.0780 0002023 5.7458 195.1768 1.00273582 37806
UTC large
Height (km)
Speed (km/s)
/
Latitude / Longitude
Inclination (degrees)
Orbital Period (minutes)
Azimuth
Elevation
Range (km)
Doppler Factor

Next 0 passes for location: London (51.5072 / 0.1276)

Sorry there are no passes over London.